Jaipur, India

2:46 AM IST on March 29, 2017 (GMT +0530)
Jaipur

Weather History for VIJP - April, 2013

Change the Weather History Date:

Tuesday, April 23, 2013

  Actual Average Record
Temperature  
Mean Temperature 84 °F -  
Max Temperature 94 °F - - ()
Min Temperature 73 °F - - ()
Cooling Degree Days 18    
Growing Degree Days 34 (Base 50)    
Moisture  
Dew Point 57 °F    
Average Humidity 37    
Maximum Humidity 65    
Minimum Humidity 21    
Precipitation  
Precipitation 0.00 in - - ()
Sea Level Pressure  
Sea Level Pressure 29.87 in    
Wind  
Wind Speed 4 mph ()    
Max Wind Speed 8 mph    
Max Gust Speed -    
Visibility 2.6 miles    
Events      
T = Trace of Precipitation, MM = Missing Value Source: Averaged Metar Reports

Daily Weather History Graph

Daily Weather History Graph

Search for Another Location

Airport or City:

Trip Planner

Search our weather history database for the weather conditions in past years. The results will help you decide how hot, cold, wet, or windy it might be!

Date:

Astronomy

Apr. 23, 2013 Rise Set
Actual Time 5:55 AM IST 6:55 PM IST
Civil Twilight 5:31 AM IST 7:19 PM IST
Nautical Twilight 5:03 AM IST 7:47 PM IST
Astronomical Twilight 4:33 AM IST 8:16 PM IST
Moon 4:31 PM IST (4/23) 3:52 AM IST (4/23)
Length of Visible Light 13h 47m
Length of Day
12h 59m
Waxing Gibbous, 91% of the Moon is Illuminated
Apr 23
Waxing Gibbous
Apr 26
Full
May 2
Last Quarter
May 10
New
May 18
First Quarter

Hourly Weather History & Observations

Time (IST) Temp. Heat Index Dew Point Humidity Pressure Visibility Wind Dir Wind Speed Gust Speed Precip Events Conditions
12:00 AM 78.8 °F - 60.8 °F 54% 29.89 in 1.6 mi East 4.6 mph - N/A   Haze
1:00 AM 77.0 °F - 59.0 °F 54% 29.86 in 1.6 mi East 4.6 mph - N/A   Haze
2:00 AM 75.2 °F - 59.0 °F 57% 29.86 in 1.6 mi ESE 4.6 mph - N/A   Haze
3:00 AM 77.0 °F - 59.0 °F 54% 29.83 in 1.6 mi East 4.6 mph - N/A   Haze
5:00 AM 77.0 °F - 60.8 °F 57% 29.86 in 1.6 mi SW 5.8 mph - N/A   Haze
5:30 AM 76 °F - 57 °F 41% 29.80 in 1 mi SW 4.6 mph - -   Haze
6:00 AM 73.4 °F - 60.8 °F 65% 29.89 in 1.6 mi ESE 4.6 mph - N/A   Haze
8:00 AM 75.2 °F - 59.0 °F 57% 29.92 in 2.5 mi East 5.8 mph - N/A   Haze
8:30 AM 78 °F - 61 °F 45% 29.87 in 2 mi East 5.8 mph - -   Haze
9:00 AM 78.8 °F - 59.0 °F 51% 29.95 in 2.5 mi East 4.6 mph - N/A   Haze
10:00 AM 82.4 °F 82.5 °F 59.0 °F 45% 29.98 in 2.5 mi SSE 4.6 mph - N/A   Haze
11:30 AM 87 °F - 59 °F 28% 29.85 in 2 mi East 5.8 mph - -   Scattered Clouds
12:00 PM 87.8 °F 86.1 °F 55.4 °F 33% 29.95 in 3.7 mi ESE 8.1 mph - N/A   Scattered Clouds
1:00 PM 91.4 °F 89.4 °F 55.4 °F 29% 29.92 in 3.7 mi Variable 3.5 mph - N/A   Scattered Clouds
1:30 PM 89.6 °F 87.3 °F 53.6 °F 29% 29.89 in 3.7 mi Variable 3.5 mph - N/A   Scattered Clouds
2:00 PM 91.4 °F 89.1 °F 53.6 °F 28% 29.89 in 3.7 mi SSE 5.8 mph - N/A   Scattered Clouds
2:30 PM 92 °F - 56 °F 21% 29.79 in 2 mi NW 4.6 mph - -   Partly Cloudy
2:30 PM 93.2 °F 90.8 °F 53.6 °F 26% 29.89 in 3.7 mi Variable 5.8 mph - N/A   Scattered Clouds
3:00 PM 95.0 °F 92.7 °F 53.6 °F 25% 29.86 in 3.7 mi Variable 3.5 mph - N/A   Scattered Clouds
4:00 PM 91.4 °F 89.1 °F 53.6 °F 28% 29.83 in 3.7 mi Variable 4.6 mph - N/A   Scattered Clouds
4:30 PM 91.4 °F 89.1 °F 53.6 °F 28% 29.83 in 3.7 mi Calm Calm - N/A   Scattered Clouds
5:00 PM 91.4 °F - 51.8 °F 26% 29.83 in 3.7 mi Variable 1.2 mph - N/A   Scattered Clouds
5:30 PM 92 °F - 57 °F 21% 29.74 in 2 mi Calm Calm - -   Partly Cloudy
5:30 PM 93.2 °F 90.8 °F 53.6 °F 26% 29.83 in 3.7 mi Variable 1.2 mph - N/A   Scattered Clouds
6:00 PM 93.2 °F 90.8 °F 53.6 °F 26% 29.83 in 3.7 mi Variable 1.2 mph - N/A   Scattered Clouds
7:00 PM 89.6 °F 87.3 °F 53.6 °F 29% 29.86 in 2.5 mi NE 6.9 mph - N/A   Haze
8:00 PM - - - N/A% 29.86 in 2.5 mi ENE 3.5 mph - N/A   Haze
8:30 PM 84 °F - 56 °F 29% 29.81 in 2 mi East 4.6 mph - -   Haze
9:00 PM 84.2 °F 83.5 °F 57.2 °F 40% 29.89 in 2.5 mi Calm Calm - N/A   Haze
10:00 PM 84.2 °F 83.5 °F 57.2 °F 40% 29.92 in 2.5 mi Calm Calm - N/A   Haze
11:00 PM 84.2 °F 83.0 °F 55.4 °F 37% 29.92 in 2.5 mi Variable 3.5 mph - N/A   Haze
11:30 PM 82 °F - 56 °F 30% 29.82 in 2 mi Calm Calm - -   Haze